Airfield :
LOGIN :

Register | Disclaimer

   EN    FR    IT 

 










Legend :    VFR   Marginal VFR   IFR   Intensive IFR   Very Intensive IFR
Visi :
Ceiling :
>= 8 km
>= 3000ft
5 to 8 km
1000 to 3000 ft
1500m to 5 km
500 to 1000 ft
800 to 1500m
200 to 500 ft
< 800m
< 200 ft
Symbols :   Thunderstorms  Fog  Heavy snow  Heavy precipitations  Wind > 20 kt
SIGMETs :     Misc.  Thunderstorms  Icing  Turbulence  Mountain Waves  Volcanic Ashes






- Airport Elevation : 386 ft
- IATA code : QOE


ETNN - Nörvenich Airforce Base

CURRENT METAR :
  • 150420Z 23002KT 9999 SCT028 M00/M01 Q1029 BLU+

EXPIRED METARs :
  • 150320Z 27001KT 9999 SCT026 00/M01 Q1029 BLU+
  • 150220Z 25002KT 9999 FEW030 SCT050 00/M01 Q1029 BLU+

TAF TAF ETNN
Valid from the 15 at 05:00 until the 15 at 14:00 UTC


150405Z 1505/1514 02005KT 9999 NSW SCT030
PROB30 1505/1507 VRB01KT 0800 FZFG VV002
PROB30 1512/1514 02010KT 5000 -SHRAGS BKN020TCU BY ETGL



MET'MAP, your aeronautical weather chart ! - Copyright ORBIFLY December 2007 - Disclaimer

ORBIFLY MET'MAP TEAM :

Programming & Development : Alexandra Zaïnal
Concept & original design : Baudouin d'Aumeries
Assistance for programming : Marc-Olivier Méhu
Technical & hardware support : Manuel Goepfert

Contact : metmap@orbifly.com




SOURCES & CREDITS :

   NOAA